Port Orchard, Washington, United States (98366)
Lat: 47.54N, Lon: 122.64W
Wx Zone: WAZ508
Local Info
Past Weather Observations for Saturday, October 25, 2014

NOTE: This archive is for the closest National Weather Service station to Port Orchard. Information may differ from the station used for current weather conditions.

Click here for Long-term Archive

Time Weather Temperature Dewpoint Humidity Pressure Winds Precip Visibility
23:55
Clear
48°F / 9°C 46°F / 8°C 94% 29.77 in
(1008 mb)
S 13.8 mph
(S 22 kph)
- 10SM
23:35
Clear
48°F / 9°C 46°F / 8°C 94% 29.77 in
(1008 mb)
S 13.8 mph
(S 22 kph)
- 10SM
23:15
Clear
48°F / 9°C 46°F / 8°C 94% 29.77 in
(1008 mb)
S 17.3 mph
(S 28 kph)
- 10SM
22:55
Clear
48°F / 9°C 45°F / 7°C 87% 29.74 in
(1007 mb)
S 13.8 mph
(S 22 kph)
- 10SM
22:35
Clear
48°F / 9°C 46°F / 8°C 94% 29.74 in
(1007 mb)
SSE 16.1 mph
(SSE 26 kph)
- 10SM
22:15
Clear
50°F / 10°C 45°F / 7°C 82% 29.71 in
(1006 mb)
SSE 18.4 mph
(SSE 30 kph)
- 10SM
21:55
Clear
50°F / 10°C 46°F / 8°C 88% 29.68 in
(1005 mb)
SSE 23 mph
(SSE 37 kph)
- 10SM
21:35
Clear
50°F / 10°C 46°F / 8°C 88% 29.68 in
(1005 mb)
SSE 18.4 mph
(SSE 30 kph)
- 10SM
21:15
Clear
52°F / 11°C 46°F / 8°C 82% 29.65 in
(1004 mb)
SSE 24.2 mph
(SSE 39 kph)
- 10SM
20:55
Clear
52°F / 11°C 46°F / 8°C 82% 29.62 in
(1003 mb)
SSE 21.9 mph
(SSE 35 kph)
- 10SM
20:35
Partly Cloudy
52°F / 11°C 46°F / 8°C 82% 29.59 in
(1002 mb)
SSE 27.6 mph
(SSE 44 kph)
- 10SM
20:15
Mostly Cloudy
52°F / 11°C 46°F / 8°C 82% 29.56 in
(1001 mb)
SSE 29.9 mph
(SSE 48 kph)
- 10SM
19:55
Mostly Cloudy
52°F / 11°C 46°F / 8°C 82% 29.5 in
(999 mb)
SSE 34.5 mph
(SSE 56 kph)
- 10SM
19:35
Mostly Cloudy
52°F / 11°C 48°F / 9°C 88% 29.47 in
(998 mb)
S 26.5 mph
(S 43 kph)
- 10SM
19:15
Overcast
52°F / 11°C 48°F / 9°C 88% 29.44 in
(997 mb)
S 31.1 mph
(S 50 kph)
- 10SM
18:55
Overcast
52°F / 11°C 50°F / 10°C 94% 29.42 in
(996 mb)
S 26.5 mph
(S 43 kph)
- 10SM
18:35
Overcast
54°F / 12°C 52°F / 11°C 94% 29.39 in
(995 mb)
S 24.2 mph
(S 39 kph)
- 10SM
18:15
Overcast
55°F / 13°C 54°F / 12°C 94% 29.33 in
(993 mb)
S 21.9 mph
(S 35 kph)
- 10SM
17:55
Mostly Cloudy
55°F / 13°C 54°F / 12°C 94% 29.33 in
(993 mb)
S 18.4 mph
(S 30 kph)
0.14 in
(3.56 mm)
10SM
17:35
Mostly Cloudy
55°F / 13°C 55°F / 13°C 100% 29.3 in
(992 mb)
S 23 mph
(S 37 kph)
0.13 in
(3.30 mm)
10SM
17:15
Overcast
55°F / 13°C 54°F / 12°C 94% 29.3 in
(992 mb)
SW 19.6 mph
(SW 32 kph)
0.09 in
(2.29 mm)
8SM
16:55
Overcast
55°F / 13°C 54°F / 12°C 94% 29.27 in
(991 mb)
S 16.1 mph
(S 26 kph)
0.08 in
(2.03 mm)
10SM
16:35
Overcast
55°F / 13°C 54°F / 12°C 94% 29.27 in
(991 mb)
S 15 mph
(S 24 kph)
0.07 in
(1.78 mm)
10SM
16:15
Overcast
57°F / 14°C 54°F / 12°C 88% 29.27 in
(991 mb)
S 11.5 mph
(S 19 kph)
0.06 in
(1.52 mm)
10SM
15:55
Overcast
57°F / 14°C 54°F / 12°C 88% 29.27 in
(991 mb)
S 15 mph
(S 24 kph)
0.01 in
(0.25 mm)
10SM
15:35
Overcast
55°F / 13°C 54°F / 12°C 94% 29.3 in
(992 mb)
S 10.4 mph
(S 17 kph)
- 10SM
15:15
Overcast
54°F / 12°C 54°F / 12°C 100% 29.3 in
(992 mb)
Calm - 10SM
14:55
Overcast
54°F / 12°C 54°F / 12°C 100% 29.3 in
(992 mb)
Calm 0.03 in
(0.76 mm)
10SM
14:35
Overcast
55°F / 13°C 52°F / 11°C 88% 29.33 in
(993 mb)
Calm 0.02 in
(0.51 mm)
8SM
14:15
Overcast
55°F / 13°C 52°F / 11°C 88% 29.33 in
(993 mb)
ESE 4.6 mph
(ESE 7 kph)
0.01 in
(0.25 mm)
10SM
13:55
Overcast
54°F / 12°C 54°F / 12°C 100% 29.33 in
(993 mb)
NE 5.8 mph
(NE 9 kph)
0.03 in
(0.76 mm)
10SM
13:35
Overcast
54°F / 12°C 52°F / 11°C 94% 29.33 in
(993 mb)
NE 6.9 mph
(NE 11 kph)
0.02 in
(0.51 mm)
10SM
13:15
Mostly Cloudy
54°F / 12°C 52°F / 11°C 94% 29.36 in
(994 mb)
N 5.8 mph
(N 9 kph)
0.02 in
(0.51 mm)
10SM
12:55
Partly Cloudy
54°F / 12°C 54°F / 12°C 100% 29.36 in
(994 mb)
NNE 4.6 mph
(NNE 7 kph)
0.03 in
(0.76 mm)
10SM
12:35
Overcast
54°F / 12°C 54°F / 12°C 100% 29.39 in
(995 mb)
N 3.5 mph
(N 6 kph)
- 10SM
12:15
Mostly Cloudy
54°F / 12°C 54°F / 12°C 100% 29.39 in
(995 mb)
Calm - 10SM
11:55
Mostly Cloudy
54°F / 12°C 52°F / 11°C 94% 29.39 in
(995 mb)
Calm 0.01 in
(0.25 mm)
10SM
11:35
Mostly Cloudy
54°F / 12°C 54°F / 12°C 100% 29.39 in
(995 mb)
Calm - 10SM
11:15
Mostly Cloudy
54°F / 12°C 54°F / 12°C 100% 29.42 in
(996 mb)
Calm - 10SM
10:55
Partly Cloudy
54°F / 12°C 52°F / 11°C 94% 29.42 in
(996 mb)
NNW 5.8 mph
(NNW 9 kph)
0.02 in
(0.51 mm)
10SM
10:35
Mostly Cloudy
54°F / 12°C 52°F / 11°C 94% 29.44 in
(997 mb)
N 3.5 mph
(N 6 kph)
0.01 in
(0.25 mm)
10SM
10:15
Partly Cloudy
52°F / 11°C 52°F / 11°C 100% 29.47 in
(998 mb)
Calm - 10SM
09:55
Partly Cloudy
52°F / 11°C 52°F / 11°C 100% 29.47 in
(998 mb)
N 4.6 mph
(N 7 kph)
- 10SM
09:35
Partly Cloudy
52°F / 11°C 52°F / 11°C 100% 29.5 in
(999 mb)
NE 4.6 mph
(NE 7 kph)
- 10SM
09:15
Mostly Cloudy
52°F / 11°C 50°F / 10°C 94% 29.5 in
(999 mb)
NE 4.6 mph
(NE 7 kph)
- 10SM
08:55
Mostly Cloudy
52°F / 11°C 50°F / 10°C 94% 29.53 in
(1000 mb)
ESE 4.6 mph
(ESE 7 kph)
0.02 in
(0.51 mm)
10SM
08:35
Overcast
50°F / 10°C 48°F / 9°C 94% 29.56 in
(1001 mb)
Calm 0.01 in
(0.25 mm)
9SM
08:15
Overcast
48°F / 9°C 46°F / 8°C 94% 29.56 in
(1001 mb)
Calm - 10SM
07:55
Mostly Cloudy
48°F / 9°C 48°F / 9°C 100% 29.56 in
(1001 mb)
Calm 0.04 in
(1.02 mm)
6SM
07:35
Overcast
48°F / 9°C 48°F / 9°C 100% 29.56 in
(1001 mb)
Calm 0.02 in
(0.51 mm)
10SM
07:15
Overcast
48°F / 9°C 48°F / 9°C 100% 29.56 in
(1001 mb)
SW 3.5 mph
(SW 6 kph)
0.01 in
(0.25 mm)
10SM
06:55
Overcast
48°F / 9°C 48°F / 9°C 100% 29.56 in
(1001 mb)
SW 4.6 mph
(SW 7 kph)
- 10SM
06:35
Mostly Cloudy
48°F / 9°C 48°F / 9°C 100% 29.59 in
(1002 mb)
SSE 13.8 mph
(SSE 22 kph)
- 10SM
06:15
Overcast
46°F / 8°C 46°F / 8°C 100% 29.56 in
(1001 mb)
SSE 8.1 mph
(SSE 13 kph)
- 10SM
05:55
Overcast
46°F / 8°C 46°F / 8°C 100% 29.53 in
(1000 mb)
SSE 5.8 mph
(SSE 9 kph)
- 10SM
05:35
Overcast
46°F / 8°C 46°F / 8°C 100% 29.5 in
(999 mb)
NNW 3.5 mph
(NNW 6 kph)
- 10SM
05:15
Mostly Cloudy
45°F / 7°C 45°F / 7°C 100% 29.5 in
(999 mb)
Calm - 10SM
04:55
Clear
43°F / 6°C 43°F / 6°C 100% 29.5 in
(999 mb)
Calm - 10SM
04:35
Clear
43°F / 6°C 41°F / 5°C 93% 29.5 in
(999 mb)
N 3.5 mph
(N 6 kph)
- 5SM
04:15
Clear
45°F / 7°C 43°F / 6°C 93% 29.53 in
(1000 mb)
Calm - 10SM
03:55
Clear
46°F / 8°C 45°F / 7°C 93% 29.56 in
(1001 mb)
Calm - 10SM
03:35
Partly Cloudy
46°F / 8°C 45°F / 7°C 93% 29.56 in
(1001 mb)
N 3.5 mph
(N 6 kph)
- 10SM
03:15
Partly Cloudy
46°F / 8°C 46°F / 8°C 100% 29.59 in
(1002 mb)
N 3.5 mph
(N 6 kph)
- 10SM
02:55
Mostly Cloudy
46°F / 8°C 45°F / 7°C 93% 29.59 in
(1002 mb)
Calm - 10SM
02:35
Partly Cloudy
48°F / 9°C 46°F / 8°C 94% 29.62 in
(1003 mb)
Calm - 10SM
02:15
Mostly Cloudy
48°F / 9°C 46°F / 8°C 94% 29.62 in
(1003 mb)
Calm - 10SM
01:55
Mostly Cloudy
48°F / 9°C 48°F / 9°C 100% 29.65 in
(1004 mb)
Calm - 10SM
01:35
Overcast
48°F / 9°C 48°F / 9°C 100% 29.68 in
(1005 mb)
NNE 3.5 mph
(NNE 6 kph)
- 10SM
01:15
Overcast
48°F / 9°C 48°F / 9°C 100% 29.68 in
(1005 mb)
Calm - 10SM
00:55
Overcast
48°F / 9°C 48°F / 9°C 100% 29.68 in
(1005 mb)
N 3.5 mph
(N 6 kph)
- 10SM
00:35
Overcast
48°F / 9°C 48°F / 9°C 100% 29.71 in
(1006 mb)
Calm - 10SM
00:15
Overcast
48°F / 9°C 48°F / 9°C 100% 29.71 in
(1006 mb)
Calm - 10SM
Time Weather Temperature Dewpoint Humidity Pressure Winds Precip Visibility


Weather for websites

WeatherForYou.com, LLC is not responsible for any damages or problems caused by this service. Current weather conditions are obtained from the closest station including government and personal stations which may have varying degrees of accuracy. Weather forecasts are derived from the NOAA NDFD. Like all things, this site belongs to Jesus Christ... He just trusts me to maintain it. If you have any questions or comments email webmaster@weatherforyou.com

Copyright © 2014, WeatherForYou.com LLC. All rights reserved.